Location: Unspecified
(50.7693°N, 0.0000°E)
Time: 14:11:23
(UTC+00:00)

Transit 4A - Pass Details

Date: 28 June 2019
Orbit: 863 x 981 km, 66.8° (Epoch: 20 August)

Event Time Altitude Azimuth Distance (km) Brightness Sun altitude
Rises 06:24:10 0° 191° (SSW) 3,615 10.8 21.1°
Reaches altitude 10° 06:26:47 10° 185° (S) 2,688 10.2 21.5°
Maximum altitude 06:32:43 45° 115° (ESE) 1,307 9.8 22.4°
Drops below altitude 10° 06:38:46 10° 46° (NE) 2,743 11.4 23.3°
Sets 06:41:27 0° 40° (NE) 3,696 11.7 23.7°
